This is the latest recevied weather packets stored in our database for station/object IW1CBG-3. If no packets are shown the sender has not sent any weather packets the latest 10 day(s).
| Time | Temp. | Humidity | Pressure | Rain* | Wind** | Luminosity | Snow |
|---|---|---|---|---|---|---|---|
| 1788285378 | 22.22° C | 83% | 1027.8 hPa | 0 mm | - | - | - |
| 1788284777 | 22.78° C | 80% | 1027.4 hPa | 0 mm | - | - | - |
| 1788284177 | 23.33° C | 79% | 1027.2 hPa | 0 mm | - | - | - |
| 1788283593 | 23.33° C | 79% | 1026.9 hPa | 0 mm | - | - | - |
| 1788282977 | 23.89° C | 78% | 1026.9 hPa | 0 mm | - | - | - |
| 1788282378 | 23.89° C | 78% | 1027 hPa | 0 mm | - | - | - |
| 1788281778 | 23.89° C | 76% | 1026.7 hPa | 0 mm | - | - | - |
| 1788281177 | 23.89° C | 77% | 1026.8 hPa | 0 mm | - | - | - |
| 1788280577 | 23.89° C | 77% | 1027 hPa | 0 mm | - | - | - |
| 1788279977 | 23.89° C | 76% | 1026.8 hPa | 0 mm | - | - | - |
| 1788279377 | 24.44° C | 76% | 1026.8 hPa | 0 mm | - | - | - |
| 1788278777 | 24.44° C | 75% | 1026.5 hPa | 0 mm | - | - | - |
| 1788278176 | 24.44° C | 75% | 1026.5 hPa | 0 mm | - | - | - |
| 1788277576 | 24.44° C | 74% | 1026.6 hPa | 0 mm | - | - | - |
| 1788276977 | 24.44° C | 75% | 1026.5 hPa | 0 mm | - | - | - |
| 1788276376 | 24.44° C | 75% | 1026.4 hPa | 0 mm | - | - | - |
| 1788275776 | 23.89° C | 76% | 1026.8 hPa | 0 mm | - | - | - |
| 1788275182 | 24.44° C | 76% | 1026.7 hPa | 0 mm | - | - | - |
| 1788274578 | 25° C | 75% | 1026.6 hPa | 0 mm | - | - | - |
| 1788273978 | 24.44° C | 75% | 1026.6 hPa | 0 mm | - | - | - |
| 1788273378 | 25° C | 73% | 1026.7 hPa | 0 mm | - | - | - |
| 1788272777 | 24.44° C | 73% | 1026.8 hPa | 0 mm | - | - | - |
| 1788272177 | 24.44° C | 74% | 1026.6 hPa | 0 mm | - | - | - |
| 1788271578 | 24.44° C | 74% | 1026.6 hPa | 0 mm | - | - | - |
| 1788270978 | 24.44° C | 73% | 1026.7 hPa | 0 mm | - | - | - |
* Rain latest hour (hover to see other rain measurements)
** Current wind speed in m/s (hover to see current wind gust speed)